When you browse on this site, cookies collect data to enhance your experience and personalize the content and advertising you see.
Visit our Privacy Policy to learn more. By continuing to use the site, you agree to this use of cookies and data.
  • In United Kingdom
  • List of Countries
  • For 7 days
  • Water Temperature
  • Weather Map
  • Weather Widgets
  • user-avatar
    Login

    Hourly Weather Jurmala

    Today, 18 August, Sunday

    Time Temperature Precipitation Wind Pressure Humidity
    00:00 +16°C° 0 mm 3 mps 759 mmHg 83%
    01:00 +16°C° 0 mm 3 mps 759 mmHg 85%
    02:00 +14°C° 0 mm 3 mps 759 mmHg 87%
    03:00 +14°C° 0 mm 3 mps 759 mmHg 87%
    04:00 +14°C° 0 mm 4 mps 759 mmHg 87%
    05:00 +14°C° 0 mm 4 mps 759 mmHg 87%
    06:00 +15°C° 0 mm 4 mps 759 mmHg 83%
    07:00 +17°C° 0 mm 4 mps 758 mmHg 78%
    08:00 +18°C° 0 mm 4 mps 758 mmHg 74%
    09:00 +19°C° 0 mm 4 mps 758 mmHg 71%
    10:00 +21°C° 0 mm 3 mps 758 mmHg 67%
    11:00 +22°C° 0 mm 3 mps 758 mmHg 63%
    12:00 +24°C° 0.1 mm 3 mps 758 mmHg 63%
    13:00 +24°C° 0.1 mm 3 mps 758 mmHg 62%
    14:00 +25°C° 0.1 mm 3 mps 757 mmHg 61%
    15:00 +25°C° 0 mm 4 mps 757 mmHg 60%
    16:00 +25°C° 0 mm 4 mps 757 mmHg 59%
    17:00 +26°C° 0 mm 4 mps 757 mmHg 59%
    18:00 +23°C° 0 mm 4 mps 757 mmHg 65%
    19:00 +22°C° 0 mm 4 mps 757 mmHg 71%
    20:00 +21°C° 0 mm 4 mps 757 mmHg 78%
    21:00 +20°C° 0 mm 4 mps 756 mmHg 78%
    22:00 +20°C° 0 mm 5 mps 756 mmHg 78%
    23:00 +20°C° 0 mm 5 mps 756 mmHg 78%

    Tomorrow, 19 August, Monday

    Time Temperature Precipitation Wind Pressure Humidity
    00:00 +20°C° 0 mm 5 mps 756 mmHg 77%
    01:00 +20°C° 0 mm 5 mps 755 mmHg 75%
    02:00 +20°C° 0 mm 5 mps 755 mmHg 74%
    03:00 +20°C° 0 mm 5 mps 755 mmHg 76%
    04:00 +20°C° 0 mm 5 mps 755 mmHg 77%
    05:00 +19°C° 0 mm 4 mps 754 mmHg 79%
    06:00 +20°C° 0 mm 4 mps 755 mmHg 79%
    07:00 +20°C° 0 mm 4 mps 755 mmHg 79%
    08:00 +20°C° 0 mm 4 mps 756 mmHg 79%
    09:00 +21°C° 0 mm 4 mps 756 mmHg 76%
    10:00 +22°C° 0 mm 4 mps 757 mmHg 74%
    11:00 +23°C° 0 mm 5 mps 757 mmHg 71%
    12:00 +23°C° 0 mm 4 mps 758 mmHg 67%
    13:00 +25°C° 0 mm 4 mps 758 mmHg 63%
    14:00 +25°C° 0 mm 4 mps 759 mmHg 59%
    15:00 +25°C° 0 mm 4 mps 759 mmHg 59%
    16:00 +24°C° 0 mm 3 mps 760 mmHg 59%
    17:00 +24°C° 0 mm 3 mps 760 mmHg 59%
    18:00 +22°C° 0 mm 3 mps 760 mmHg 65%
    19:00 +20°C° 0 mm 3 mps 761 mmHg 71%
    20:00 +19°C° 0 mm 2 mps 761 mmHg 78%
    21:00 +18°C° 0 mm 2 mps 761 mmHg 81%
    22:00 +17°C° 0 mm 2 mps 761 mmHg 85%
    23:00 +17°C° 0 mm 3 mps 762 mmHg 89%

    Day after tomorrow, 20 August, Tuesday

    Time Temperature Precipitation Wind Pressure Humidity
    00:00 +16°C° 0 mm 3 mps 762 mmHg 91%
    01:00 +16°C° 0 mm 3 mps 762 mmHg 92%
    02:00 +14°C° 0 mm 3 mps 763 mmHg 94%
    03:00 +14°C° 0 mm 3 mps 763 mmHg 94%
    04:00 +14°C° 0 mm 3 mps 763 mmHg 94%
    05:00 +13°C° 0 mm 3 mps 763 mmHg 95%
    06:00 +16°C° 0 mm 3 mps 764 mmHg 90%
    07:00 +17°C° 0 mm 3 mps 764 mmHg 85%
    08:00 +18°C° 0 mm 3 mps 764 mmHg 80%
    09:00 +19°C° 0 mm 3 mps 765 mmHg 72%
    10:00 +21°C° 0 mm 3 mps 765 mmHg 65%
    11:00 +22°C° 0 mm 3 mps 765 mmHg 58%
    12:00 +24°C° 0 mm 3 mps 765 mmHg 55%
    13:00 +24°C° 0 mm 3 mps 765 mmHg 51%
    14:00 +25°C° 0 mm 2 mps 766 mmHg 48%
    15:00 +24°C° 0 mm 2 mps 766 mmHg 51%
    16:00 +24°C° 0 mm 2 mps 766 mmHg 53%
    17:00 +24°C° 0 mm 2 mps 766 mmHg 56%
    18:00 +21°C° 0 mm 2 mps 766 mmHg 62%
    19:00 +20°C° 0 mm 2 mps 766 mmHg 68%
    20:00 +18°C° 0 mm 2 mps 766 mmHg 74%
    21:00 +18°C° 0 mm 2 mps 766 mmHg 75%
    22:00 +17°C° 0 mm 2 mps 767 mmHg 76%
    23:00 +17°C° 0 mm 2 mps 767 mmHg 77%

    21 August, Wednesday

    Time Temperature Precipitation Wind Pressure Humidity
    00:00 +16°C° 0 mm 2 mps 767 mmHg 80%
    01:00 +16°C° 0 mm 2 mps 767 mmHg 82%
    02:00 +15°C° 0 mm 2 mps 767 mmHg 85%
    03:00 +15°C° 0 mm 2 mps 767 mmHg 86%
    04:00 +14°C° 0 mm 2 mps 767 mmHg 86%
    05:00 +14°C° 0 mm 2 mps 767 mmHg 87%
    06:00 +15°C° 0 mm 2 mps 767 mmHg 81%
    07:00 +17°C° 0 mm 2 mps 767 mmHg 75%
    08:00 +18°C° 0 mm 2 mps 767 mmHg 69%
    09:00 +19°C° 0 mm 2 mps 767 mmHg 64%
    10:00 +20°C° 0 mm 2 mps 767 mmHg 59%
    11:00 +23°C° 0 mm 2 mps 767 mmHg 55%
    12:00 +21°C° 0.1 mm 2 mps 767 mmHg 57%
    13:00 +21°C° 0.1 mm 2 mps 767 mmHg 60%
    14:00 +21°C° 0.1 mm 3 mps 767 mmHg 62%
    15:00 +20°C° 0.1 mm 3 mps 767 mmHg 67%
    16:00 +20°C° 0.1 mm 2 mps 767 mmHg 71%
    17:00 +19°C° 0.1 mm 2 mps 767 mmHg 76%
    18:00 +18°C° 0.1 mm 2 mps 767 mmHg 79%
    19:00 +17°C° 0.1 mm 2 mps 767 mmHg 83%
    20:00 +16°C° 0.1 mm 2 mps 767 mmHg 87%
    21:00 +16°C° 0 mm 2 mps 767 mmHg 89%
    22:00 +14°C° 0 mm 3 mps 767 mmHg 91%
    23:00 +13°C° 0 mm 3 mps 767 mmHg 93%

    22 August, Thursday

    Time Temperature Precipitation Wind Pressure Humidity
    00:00 +13°C° 0 mm 3 mps 767 mmHg 93%
    01:00 +13°C° 0 mm 3 mps 767 mmHg 93%
    02:00 +12°C° 0 mm 3 mps 767 mmHg 93%
    03:00 +12°C° 0 mm 3 mps 767 mmHg 93%
    04:00 +13°C° 0 mm 2 mps 767 mmHg 94%
    05:00 +13°C° 0 mm 2 mps 767 mmHg 94%
    06:00 +14°C° 0 mm 2 mps 767 mmHg 91%
    07:00 +15°C° 0 mm 2 mps 768 mmHg 88%
    08:00 +16°C° 0 mm 2 mps 768 mmHg 84%
    09:00 +18°C° 0 mm 2 mps 768 mmHg 74%
    10:00 +19°C° 0 mm 2 mps 768 mmHg 64%
    11:00 +21°C° 0 mm 2 mps 768 mmHg 54%
    12:00 +21°C° 0 mm 2 mps 768 mmHg 53%
    13:00 +21°C° 0 mm 2 mps 768 mmHg 52%
    14:00 +23°C° 0 mm 1 mps 768 mmHg 51%
    15:00 +21°C° 0 mm 2 mps 768 mmHg 52%
    16:00 +21°C° 0 mm 2 mps 768 mmHg 53%
    17:00 +21°C° 0 mm 2 mps 768 mmHg 55%
    18:00 +20°C° 0 mm 2 mps 768 mmHg 62%
    19:00 +18°C° 0 mm 2 mps 768 mmHg 68%
    20:00 +16°C° 0 mm 2 mps 768 mmHg 75%
    21:00 +16°C° 0 mm 2 mps 769 mmHg 78%
    22:00 +15°C° 0 mm 1 mps 769 mmHg 81%
    23:00 +14°C° 0 mm 1 mps 769 mmHg 84%

    23 August, Friday

    Time Temperature Precipitation Wind Pressure Humidity
    00:00 +14°C° 0 mm 1 mps 769 mmHg 85%
    01:00 +13°C° 0 mm 1 mps 769 mmHg 86%
    02:00 +13°C° 0 mm 1 mps 769 mmHg 88%
    03:00 +13°C° 0 mm 1 mps 769 mmHg 89%
    04:00 +13°C° 0 mm 1 mps 769 mmHg 89%
    05:00 +12°C° 0 mm 2 mps 769 mmHg 90%
    06:00 +13°C° 0 mm 2 mps 769 mmHg 86%
    07:00 +15°C° 0 mm 2 mps 769 mmHg 81%
    08:00 +16°C° 0 mm 2 mps 769 mmHg 76%
    09:00 +17°C° 0 mm 2 mps 769 mmHg 69%
    10:00 +19°C° 0 mm 2 mps 769 mmHg 62%
    11:00 +20°C° 0 mm 2 mps 769 mmHg 55%
    12:00 +20°C° 0.3 mm 2 mps 768 mmHg 57%
    13:00 +21°C° 0.3 mm 3 mps 768 mmHg 59%
    14:00 +21°C° 0.3 mm 3 mps 768 mmHg 61%
    15:00 +21°C° 0.7 mm 3 mps 768 mmHg 64%
    16:00 +20°C° 0.7 mm 2 mps 768 mmHg 67%
    17:00 +20°C° 0.7 mm 2 mps 768 mmHg 70%
    18:00 +19°C° 0.1 mm 2 mps 768 mmHg 74%
    19:00 +18°C° 0.1 mm 1 mps 768 mmHg 79%
    20:00 +16°C° 0.1 mm 1 mps 768 mmHg 83%
    21:00 +15°C° 0 mm 1 mps 768 mmHg 85%
    22:00 +15°C° 0 mm 2 mps 768 mmHg 87%
    23:00 +14°C° 0 mm 2 mps 768 mmHg 89%
    Show more